Probability
3 3 4 3 1 0 0 0 0 1 1 1 0 1 1 2 1 1 2 3 3 2 1 1 1 0 0 0 0 0 0 0 0 0 0 0 0 0 0 0 0 0 0
3 3 3 3 1 0 0 1 1 0 0 0 1 1 1 1 0 0 1 2 3 2 1 1 1 1 0 0 0 0 0 0 0 0 0 0 0 0 0 0 0 0 0
3 3 3 3 2 1 1 2 1 0 0 0 1 1 0 0 0 0 1 1 2 2 1 1 1 1 0 0 0 0 0 0 0 0 0 0 0 0 0 0 0 0 0
3 4 3 2 1 1 1 1 1 0 0 0 0 0 0 0 0 0 1 1 1 1 1 0 1 1 0 0 0 0 0 0 0 0 0 0 0 0 0 0 0 0 0
3 4 3 2 0 0 0 0 0 0 0 0 0 0 0 0 0 0 0 0 0 1 0 0 0 0 0 0 0 0 0 0 0 0 0 0 0 0 0 0 0 0 0
2 3 3 2 0 0 0 0 0 0 0 0 0 0 0 0 0 0 0 0 0 0 0 0 0 0 0 0 0 0 0 1 2 1 1 0 0 0 0 0 0 0 0
1 1 2 2 0 0 0 0 0 0 0 0 0 0 0 0 0 0 0 0 0 0 0 0 0 0 0 0 0 0 0 1 3 3 2 1 0 0 0 0 0 0 0
0 0 1 1 0 0 0 0 0 0 0 0 0 0 0 0 0 0 0 0 0 0 0 0 0 0 0 0 0 1 1 1 2 2 2 1 0 0 0 0 0 0 0
0 0 0 0 0 0 0 0 0 0 0 0 0 0 0 0 0 0 0 0 0 0 0 0 0 0 1 0 1 2 2 1 1 1 1 0 0 0 0 0 0 0 0
0 0 0 0 0 0 0 1 0 0 0 0 0 0 0 0 0 0 0 0 0 0 0 0 0 0 0 0 1 2 3 1 0 0 0 0 0 0 0 0 1 1 1
0 0 0 0 0 0 0 0 0 0 0 0 0 0 0 0 0 0 0 0 0 0 0 0 0 0 0 0 1 2 2 1 0 0 0 0 0 0 0 1 2 2 2
0 0 0 0 0 0 0 0 0 0 0 0 0 0 0 0 0 0 0 0 0 0 0 0 1 0 0 0 0 1 1 0 0 0 0 0 0 0 0 1 2 3 3
0 0 0 0 0 0 0 0 0 0 0 0 0 0 0 0 0 0 0 0 0 0 0 0 0 0 0 0 0 0 0 0 0 0 0 1 1 1 1 1 1 1 2
0 0 0 0 0 0 0 0 0 0 0 0 0 0 0 0 0 0 0 0 0 0 0 0 0 0 0 0 0 0 0 0 0 0 1 2 2 2 1 0 0 1 2
0 0 0 0 0 0 0 0 0 0 0 0 0 0 0 0 0 0 0 0 0 0 0 0 0 0 0 0 0 0 0 0 0 0 1 2 2 2 1 0 0 2 3
0 0 0 0 0 0 0 0 0 0 0 0 0 0 0 0 0 0 0 0 0 0 0 0 0 0 0 0 0 0 0 0 0 0 0 1 1 1 0 0 1 2 4
0 0 0 0 0 0 0 0 0 0 0 0 0 0 0 0 0 0 0 0 0 0 0 0 0 0 0 0 0 0 0 0 0 0 0 0 0 1 1 1 2 2 3
0 0 0 0 0 0 0 0 0 0 0 0 1 1 0 0 0 0 0 0 0 0 0 0 0 0 0 0 0 0 0 0 0 0 0 0 1 2 2 3 3 3 3
0 0 0 0 0 1 1 0 0 0 0 0 1 2 1 0 0 1 1 0 0 0 0 0 0 0 0 0 0 0 0 0 0 0 0 1 2 2 2 2 2 3 3
0 0 1 1 1 2 2 1 0 0 0 0 1 1 1 0 1 2 2 1 1 0 0 0 0 0 0 0 0 0 0 0 0 0 0 1 1 1 1 1 1 2 3
1 1 1 1 2 4 4 2 0 0 0 0 0 0 0 1 2 3 3 2 2 1 0 0 0 0 0 0 0 0 0 0 0 0 0 0 0 0 0 0 0 2 3
1 1 1 1 1 3 4 2 1 0 0 0 0 0 0 2 3 3 2 2 2 2 1 0 0 0 0 0 0 0 0 0 0 0 0 0 0 0 1 0 0 1 2
1 0 0 0 1 2 3 3 1 1 1 0 0 0 0 1 2 2 1 1 1 2 2 1 0 1 1 1 1 0 0 0 0 0 0 0 0 0 0 0 0 1 1
1 1 1 1 1 3 3 4 4 3 3 2 1 0 0 0 0 0 0 0 0 1 1 2 2 2 2 3 2 1 0 0 0 0 0 0 0 0 0 0 0 0 0
4 3 3 3 3 3 4 5 7 6 5 5 3 2 0 0 0 0 1 1 1 1 2 3 4 4 4 4 4 2 1 0 0 0 0 0 0 0 0 0 1 1 0
5 5 5 4 3 3 4 5 7 7 6 6 5 3 1 0 0 1 2 2 2 3 4 5 5 5 5 6 5 3 2 1 0 0 0 0 0 0 0 1 2 2 1
Wind_Speed
1 2 5 9 10 10 11 11 11 12 12 12 13 12 12 13 13 12 12 12 11 11 11 11 11 11 11 11 11 11 10 10 10 10 9 9 9 9 9 10 9 6 9
3 3 6 9 10 10 11 11 11 11 11 12 12 12 12 12 12 12 11 11 10 11 11 11 11 11 11 11 11 10 10 9 9 9 8 8 9 9 9 9 8 6 9
4 4 6 8 10 10 10 11 11 11 11 11 11 11 11 11 11 11 10 10 10 10 10 10 10 10 10 10 10 9 9 8 8 7 7 5 6 8 9 9 8 8 9
5 4 5 9 10 10 10 10 10 10 10 10 10 10 10 11 11 10 10 9 9 9 9 9 9 9 9 9 8 8 7 7 7 7 4 3 4 7 7 8 8 8 9
4 3 4 9 9 9 10 10 10 10 10 10 9 9 10 10 10 9 9 8 8 8 8 8 8 7 8 7 7 6 6 6 6 5 3 3 2 6 7 8 8 8 8
4 3 4 8 9 9 9 9 9 9 9 9 9 9 9 9 9 8 8 8 7 7 7 7 6 6 6 6 6 6 5 5 5 3 3 2 2 5 6 7 7 7 7
4 3 3 7 8 8 8 8 8 8 9 8 8 8 8 8 7 7 6 7 6 5 5 5 5 5 5 5 4 4 4 4 3 3 3 2 3 5 6 7 7 7 7
4 3 2 6 8 8 8 7 7 7 8 8 7 7 7 6 6 5 5 5 5 5 4 4 4 4 4 4 3 3 3 3 3 3 3 3 5 6 7 7 7 7 7
4 3 2 2 4 6 7 6 6 6 7 7 6 7 7 6 5 4 4 3 3 3 3 3 3 4 3 3 3 3 2 3 2 2 3 3 5 6 7 7 7 8 8
3 3 2 2 2 2 3 5 6 5 6 5 5 6 5 5 4 3 2 2 2 2 2 2 2 2 2 3 3 3 3 2 1 2 2 3 7 7 7 7 8 8 8
2 2 2 2 2 2 2 3 4 4 4 4 3 4 3 2 1 1 1 1 2 1 1 1 2 2 1 2 2 2 2 1 2 2 2 5 7 8 8 8 8 9 9
3 2 1 2 2 1 1 2 1 1 2 2 2 2 2 2 1 1 1 0 1 1 1 0 0 0 1 1 0 0 1 2 2 2 3 6 7 8 8 9 8 9 9
3 3 2 2 2 2 1 1 1 1 1 2 2 2 1 1 1 1 0 1 1 1 1 1 1 1 0 0 1 1 1 2 2 2 3 6 7 8 8 8 8 8 9
3 3 2 2 2 2 1 1 1 1 1 1 1 1 1 1 0 1 0 0 1 0 0 1 0 1 1 1 1 2 2 2 2 2 3 6 7 8 8 8 8 9 9
3 3 3 3 3 2 2 1 1 1 1 1 1 1 1 1 1 0 0 0 1 0 0 0 1 1 1 1 2 2 3 3 3 3 3 6 7 7 8 8 8 8 8
4 3 2 3 3 2 2 1 1 1 1 1 1 1 1 1 1 1 1 1 1 1 1 1 1 1 1 1 2 3 3 4 4 4 3 4 6 7 8 8 8 8 8
4 4 3 3 2 2 2 2 1 1 1 1 1 1 1 1 2 1 1 1 1 1 1 1 1 1 1 1 2 3 3 3 4 4 4 3 4 6 8 8 8 8 8
3 3 3 3 3 3 2 2 1 1 1 1 1 1 2 2 2 1 1 1 1 0 0 0 1 1 1 2 2 2 2 2 3 3 3 3 3 3 5 7 7 7 8
4 4 3 2 3 2 2 1 1 1 1 1 0 1 1 1 2 2 1 1 1 0 0 1 1 1 1 2 2 2 2 2 2 2 3 3 3 3 3 4 5 6 7
4 4 3 2 2 2 2 1 1 1 0 0 1 1 1 1 1 2 1 1 1 0 1 1 1 1 1 2 2 2 2 2 1 2 2 2 2 3 3 3 2 3 6
3 3 3 3 2 2 2 1 1 0 0 0 1 1 1 1 1 1 1 1 1 1 1 1 1 1 1 1 1 2 2 1 1 1 1 1 2 2 2 2 2 2 3
3 3 3 3 2 2 2 2 1 1 0 0 0 1 1 1 1 2 2 1 1 1 1 1 1 1 1 0 1 0 2 3 2 1 0 1 1 1 1 2 2 2 3
4 4 3 3 3 2 2 1 1 1 1 1 1 1 1 1 2 1 1 1 1 1 2 2 1 2 1 1 1 2 1 2 2 2 1 1 1 1 1 1 2 2 2
4 3 3 3 3 2 2 2 2 2 1 2 1 1 1 1 1 1 1 1 2 2 2 2 2 2 2 2 1 1 1 2 1 2 2 1 1 1 2 2 2 2 2
4 4 3 2 2 2 2 3 2 1 1 1 1 1 1 1 1 1 1 1 1 1 2 2 1 2 2 2 2 1 1 1 1 1 2 2 2 1 1 2 2 2 2
3 3 3 3 2 2 2 2 3 2 2 1 1 1 2 1 1 1 1 1 1 1 2 2 2 2 2 2 1 1 2 2 2 2 3 2 2 2 2 2 2 2 2
Wind_Direction
157 153 146 130 123 120 118 115 113 114 114 115 116 117 119 121 123 123 125 127 127 127 126 124 123 123 123 123 122 122 123 126 124 125 127 131 134 135 135 133 130 133 134
141 140 139 129 126 124 121 118 116 115 116 117 118 119 121 123 123 123 122 127 125 129 127 123 121 122 122 122 122 123 125 127 125 126 129 133 135 135 137 137 136 137 137
124 130 136 132 128 126 124 121 119 119 120 120 119 119 120 123 124 124 122 123 122 124 126 123 121 121 121 121 123 125 127 129 129 128 125 125 133 138 142 143 144 147 146
121 117 133 133 130 128 126 123 122 121 122 122 122 122 122 122 124 126 126 125 123 123 125 125 126 126 124 123 124 127 129 132 128 126 114 122 139 142 146 150 154 156 154
111 111 140 138 134 131 129 125 125 124 124 126 129 128 127 125 124 126 128 128 129 129 131 129 129 129 129 129 129 129 133 138 137 126 121 119 131 152 150 154 158 161 159
114 121 149 142 140 135 131 128 127 127 125 125 128 132 130 129 128 128 129 130 130 133 136 134 134 133 134 134 132 137 142 144 139 130 138 139 148 162 157 159 165 165 163
116 119 146 147 146 140 135 133 132 131 129 126 128 130 130 129 129 129 128 127 130 134 134 137 140 140 144 141 139 145 149 151 144 149 159 164 177 178 175 174 175 175 176
118 111 127 146 145 142 140 137 135 134 131 130 132 135 137 135 132 131 129 126 124 124 128 133 144 154 152 153 151 151 154 166 161 168 170 180 190 194 191 189 187 187 188
104 102 99 114 132 140 142 141 139 138 135 136 134 137 139 141 140 139 135 134 128 129 139 151 160 160 165 167 168 170 182 187 166 170 186 189 200 204 200 197 195 193 193
92 95 97 90 95 111 132 148 149 149 146 142 136 137 141 141 141 143 137 138 133 143 162 177 179 175 184 184 186 190 193 186 183 189 195 202 209 213 211 206 200 196 196
118 97 107 106 102 109 127 156 151 153 150 142 132 129 115 86 77 96 156 157 158 162 193 193 185 186 195 198 201 197 186 175 194 211 212 217 218 219 219 215 207 203 202
168 167 152 145 142 137 150 105 81 87 86 85 80 85 82 81 61 57 49 198 200 219 204 186 157 88 26 13 297 218 186 199 216 222 222 225 227 227 226 221 216 209 208
178 173 163 164 155 148 124 107 84 71 69 75 86 92 86 76 47 21 13 352 350 351 28 11 18 24 17 307 270 239 217 222 227 234 228 226 230 232 229 225 221 216 216
169 183 174 166 155 152 137 124 119 109 99 108 114 114 109 88 23 349 21 328 350 21 32 11 353 325 302 272 253 252 235 223 226 230 238 237 238 235 228 224 223 223 220
174 185 180 167 167 160 149 160 141 152 166 174 142 139 152 162 219 269 315 313 300 280 230 273 289 306 309 299 275 261 252 240 235 227 232 237 239 235 229 226 227 227 224
182 185 179 173 172 158 156 166 171 174 180 151 160 190 186 189 200 213 261 273 279 257 243 248 269 285 289 282 277 267 257 254 245 239 233 239 240 238 233 233 234 232 227
183 180 181 182 162 165 178 187 181 177 166 178 197 193 189 200 203 209 238 258 269 262 253 276 298 306 288 279 277 272 261 256 249 242 237 233 238 240 236 233 234 229 227
168 166 180 181 160 172 180 185 176 167 175 198 209 198 200 207 208 204 223 260 270 268 235 233 269 289 285 282 280 275 270 260 256 243 234 229 230 236 236 234 231 228 229
169 163 163 167 161 169 164 153 152 141 172 215 201 210 220 215 211 200 222 253 248 239 248 257 237 226 269 283 274 266 268 256 256 249 235 233 231 232 232 238 236 233 232
157 158 164 161 156 153 139 117 93 86 193 223 217 230 226 222 215 204 223 255 233 206 280 259 252 250 257 278 287 299 289 274 262 261 259 252 242 240 234 234 239 247 241
145 154 167 161 164 150 142 139 141 223 258 289 247 234 230 229 222 207 239 240 216 214 255 260 247 258 284 300 337 330 321 305 288 281 275 265 261 249 236 231 230 237 246
165 170 172 174 173 176 168 155 161 168 212 221 322 334 277 254 249 239 220 232 228 218 254 267 234 233 290 44 134 6 336 339 340 344 292 249 267 259 244 237 227 229 240
175 182 188 184 184 182 162 120 91 65 29 16 343 325 307 278 269 263 245 225 223 219 239 244 236 215 244 270 176 164 168 261 310 324 335 330 317 277 262 246 235 238 235
189 182 184 182 181 176 156 150 150 162 211 241 247 263 293 305 297 287 267 242 228 222 236 248 223 215 212 238 236 211 196 180 203 308 318 327 320 289 273 270 259 247 239
180 176 180 178 180 176 165 168 165 194 233 264 278 286 293 312 316 305 266 254 250 243 244 244 222 204 205 215 212 193 199 206 203 216 283 315 333 317 287 269 262 258 248
174 170 172 176 198 188 184 186 187 201 222 238 258 264 281 290 290 297 257 253 270 266 243 243 241 208 212 223 220 197 185 195 198 198 239 270 287 296 297 288 275 266 258